Helicity
62 62 1 81 114 76 50 67 70 75 66 82 60 63 63 67 90 96 97 102 90 90 116 126 124 137 134 102 92 94 94 101 96 93 84 83 82 54 51 39 39 38 43 61
57 35 82 79 115 95 65 60 78 86 90 86 78 51 62 95 92 117 125 109 112 151 158 152 134 119 118 110 101 104 112 121 120 104 96 88 70 64 48 29 40 46 55 82
54 84 85 119 141 124 113 81 76 77 92 90 69 50 93 130 135 134 129 150 169 170 179 165 150 135 126 114 104 113 123 134 135 127 108 101 89 75 56 44 50 65 85 109
77 64 125 150 134 145 113 79 88 98 105 76 115 59 97 110 130 142 150 185 174 187 188 163 149 138 113 104 110 122 130 135 141 135 131 119 97 78 50 41 47 75 110 123
102 81 129 149 125 123 106 122 131 138 134 116 120 114 62 126 94 88 112 134 153 178 175 158 137 123 107 104 112 124 135 143 136 137 131 114 91 62 51 58 88 103 123 129
88 116 127 127 179 169 94 197 205 165 135 93 119 151 73 90 75 98 126 125 175 190 175 167 154 128 111 105 118 128 134 137 144 142 128 113 94 76 79 86 99 116 129 126
152 136 147 150 236 254 190 191 183 151 176 77 142 158 120 105 78 92 102 167 196 188 183 167 149 117 101 92 117 135 140 158 148 137 119 95 79 76 84 92 112 130 137 141
151 131 117 143 162 119 177 183 159 72 105 117 168 109 114 93 99 124 133 207 223 200 174 144 114 101 100 128 145 145 157 157 144 142 122 107 108 116 131 135 132 133 132 135
149 145 206 203 198 194 168 183 164 174 184 162 138 166 132 135 149 157 174 224 187 182 141 135 132 126 133 144 146 145 155 170 171 148 132 127 122 133 137 130 114 111 114 123
77 131 197 209 210 238 188 186 222 253 163 140 168 156 125 119 75 124 153 205 226 229 223 200 171 149 152 147 154 171 181 186 173 162 144 135 152 154 135 127 125 124 123 128
145 146 163 217 164 176 268 237 255 221 244 182 162 133 120 111 82 98 127 190 235 246 250 234 216 217 207 205 209 232 237 215 198 182 168 178 155 136 133 141 151 157 160 152
218 152 127 156 164 177 194 184 233 251 220 271 232 198 149 124 111 124 141 194 229 256 275 264 253 254 253 249 252 228 205 203 190 165 156 138 124 137 154 166 167 158 158 158
218 207 234 240 209 220 203 218 253 282 275 215 214 187 145 155 172 143 190 219 264 310 326 310 309 305 261 252 225 199 178 162 140 135 131 128 128 140 141 153 162 170 166 158
212 219 184 191 113 178 231 255 305 314 310 252 282 199 154 132 131 168 220 284 325 334 324 319 316 282 254 226 194 186 162 128 100 97 96 94 108 147 165 170 175 172 159 148
213 185 206 209 170 189 161 167 248 278 256 228 164 184 169 128 138 207 302 344 366 342 329 310 295 285 252 215 181 129 97 93 98 99 115 129 160 164 169 180 173 169 167 149
266 191 218 246 226 244 213 218 160 167 253 232 259 201 206 209 315 328 323 358 365 363 356 328 294 244 200 148 109 103 107 113 135 131 122 133 137 146 156 158 164 159 165 170
244 237 250 228 240 221 241 180 225 256 259 245 239 170 211 231 240 282 323 346 372 348 307 269 219 166 131 109 109 116 119 102 101 107 120 124 133 152 162 167 167 162 150 150
245 296 293 223 283 269 230 277 206 250 230 282 267 212 160 193 277 333 331 336 317 262 218 182 154 135 117 102 84 82 83 94 113 121 123 137 155 159 151 153 141 140 151 177
270 295 287 274 281 249 244 165 149 164 143 188 239 267 303 354 470 441 323 282 238 191 161 136 115 87 60 37 62 90 94 110 115 118 136 142 144 138 126 131 127 137 152 169
372 320 318 304 270 176 183 166 192 221 236 170 229 252 280 301 303 335 241 213 189 158 103 78 81 54 43 52 75 87 94 108 115 119 126 125 125 120 119 118 128 143 163 169
419 417 355 382 319 314 194 159 199 280 127 236 258 245 275 330 310 241 191 156 123 115 94 57 45 50 63 79 97 106 114 112 113 119 114 110 110 113 117 127 151 157 156 162
266 332 354 381 383 300 205 315 248 205 300 269 318 314 398 320 219 157 135 131 102 64 51 68 85 93 90 98 115 116 122 112 116 108 106 106 112 127 135 140 153 151 155 157
357 325 293 329 360 304 377 298 308 281 286 340 383 359 293 211 147 129 102 76 75 77 81 84 84 89 91 96 101 117 109 106 95 104 112 120 121 130 138 141 151 162 157 174
435 306 277 233 378 372 411 452 484 502 493 420 307 218 162 148 115 102 96 95 90 80 78 76 85 91 96 98 107 121 107 103 116 120 122 128 125 113 126 162 171 176 174 171
240 277 315 367 374 496 587 531 416 361 289 243 184 144 127 116 104 91 87 78 65 59 69 76 84 98 100 108 116 111 108 121 133 135 131 126 136 133 148 158 158 149 163 155
280 241 312 294 329 370 312 276 245 238 173 139 127 112 96 86 74 67 55 47 53 58 74 92 101 109 104 113 107 105 121 137 137 127 118 125 123 136 128 110 125 101 104 92
Wind_Speed
50 60 68 51 44 43 39 49 48 41 37 37 44 51 41 33 26 21 14 10 8 9 16 17 18 18 17 18 20 25 27 31 31 30 30 33 36 38 45 50 54 57 59 60
53 73 56 43 47 49 44 48 46 40 35 39 45 58 54 36 30 21 16 13 12 13 14 15 16 16 17 18 21 23 26 29 31 30 30 32 34 39 45 50 55 58 59 60
62 56 56 55 51 51 52 51 45 44 36 42 51 60 48 42 37 33 25 20 17 12 10 13 14 14 15 17 20 22 25 27 30 31 31 33 37 42 48 53 57 59 59 59
57 49 51 54 52 43 59 43 40 40 41 52 40 60 44 37 37 34 26 21 18 15 14 14 15 14 15 17 19 21 23 26 30 32 35 38 42 48 50 54 57 60 60 59
56 52 46 49 47 38 45 30 32 35 41 48 46 55 48 38 36 29 23 20 18 14 11 12 13 14 17 17 18 20 22 26 30 34 37 42 47 50 54 57 61 62 61 60
48 43 45 45 36 37 15 25 30 35 41 64 48 47 55 37 37 31 26 21 16 13 11 12 14 15 17 18 18 20 23 28 33 37 41 47 52 55 58 61 63 64 65 64
49 47 44 36 35 32 33 31 49 57 57 65 40 44 51 37 40 38 22 17 13 12 11 12 13 15 16 16 19 23 27 32 36 41 46 50 52 55 59 62 65 69 70 70
58 63 46 43 45 45 40 42 48 62 60 57 41 53 44 39 41 37 27 12 10 10 8 8 10 12 15 20 24 25 30 37 42 46 51 53 57 61 65 67 71 73 75 77
53 58 44 45 41 36 43 50 37 45 47 59 53 52 48 44 40 33 21 10 10 9 8 9 11 15 19 23 27 31 36 42 47 51 54 59 63 66 70 73 74 76 79 82
49 49 47 44 41 42 40 28 46 46 63 71 62 60 51 39 34 31 21 12 11 11 12 14 18 23 26 29 33 35 40 46 50 53 57 61 65 68 72 75 82 85 87 89
48 49 47 44 50 44 41 44 41 39 50 63 71 60 38 38 35 29 22 11 10 12 15 19 23 26 28 31 33 38 43 49 55 59 63 68 71 74 77 80 84 87 89 93
51 45 54 51 46 45 47 45 40 54 60 56 61 66 40 41 35 22 15 13 13 15 17 20 22 26 31 35 40 46 51 56 61 64 68 71 74 77 81 84 87 89 93 93
45 51 55 56 53 49 50 49 47 46 50 62 67 65 41 40 30 22 18 17 16 18 21 25 29 34 38 43 49 54 58 63 65 68 72 76 80 82 84 86 89 90 93 96
34 52 58 70 57 44 56 52 49 51 63 64 67 63 47 40 33 30 25 22 22 23 26 30 35 41 44 50 56 61 65 68 71 74 77 81 84 86 89 90 91 93 95 98
45 62 58 55 51 50 53 51 47 54 58 67 69 63 55 44 39 33 26 26 27 28 31 35 41 48 54 59 62 65 68 72 74 78 84 88 88 89 90 93 94 96 96 97
51 63 57 66 60 59 64 57 50 54 60 66 65 65 48 41 32 33 28 27 30 31 35 40 47 53 59 64 67 68 73 77 81 86 90 91 92 94 94 95 96 99 100 97
56 58 61 75 61 65 85 68 59 60 59 60 70 65 44 43 37 33 31 30 32 34 39 47 54 59 63 67 68 77 81 82 85 88 91 92 92 93 94 95 97 101 102 99
55 56 60 71 62 92 70 54 53 61 59 54 55 50 43 38 31 27 29 29 32 38 46 54 59 63 67 68 74 76 78 82 86 90 91 90 93 95 97 99 101 100 97 94
52 54 65 74 77 79 68 54 49 51 61 46 47 44 37 27 29 37 28 31 37 45 50 56 60 64 68 72 75 79 82 86 90 93 95 94 93 97 99 101 100 96 92 89
50 53 64 64 79 92 68 50 42 45 78 42 38 32 28 30 49 44 30 36 42 48 53 59 65 68 73 76 78 83 89 93 97 97 96 95 94 96 98 98 96 92 86 86
62 64 72 72 80 76 57 40 37 70 78 36 31 27 30 41 42 25 29 38 45 54 61 63 67 71 75 79 82 90 94 97 96 95 95 96 94 94 91 90 87 87 86 86
62 62 68 66 77 94 43 44 65 57 40 29 25 26 30 26 26 29 36 45 54 61 66 69 74 77 79 81 87 93 95 94 93 93 94 93 90 87 85 85 84 82 83 85
67 59 61 59 66 60 51 55 41 34 26 25 22 23 23 27 32 37 44 53 61 67 72 74 77 81 81 82 86 94 94 92 93 91 90 87 85 82 80 79 80 82 81 76
60 54 68 69 62 49 42 33 28 23 20 18 18 21 26 33 37 46 54 61 67 70 74 76 80 84 87 85 85 85 88 86 85 86 85 82 82 81 77 76 76 74 70 71
63 52 53 53 43 35 36 32 25 18 16 17 21 25 31 38 46 53 59 64 68 72 75 78 83 86 88 87 85 81 81 79 80 80 79 78 76 76 78 75 66 65 66 65
46 49 54 60 38 42 33 20 12 15 18 19 23 30 37 45 52 57 61 64 69 75 76 81 83 85 87 85 82 78 74 73 76 78 77 76 76 75 74 70 66 60 60 53
Wind_Direction
228 226 225 234 245 257 263 259 263 271 275 275 275 276 284 287 288 289 287 286 294 312 327 334 341 347 351 352 352 351 352 351 354 356 355 355 357 1 357 353 352 351 351 351
226 225 236 242 245 250 257 259 264 275 277 278 281 275 279 284 286 278 270 272 279 302 315 326 336 342 341 346 348 352 353 353 356 358 358 358 359 355 351 349 349 349 350 351
227 236 233 238 246 248 254 258 265 272 279 283 286 282 286 288 289 292 285 282 284 273 292 313 324 331 338 340 343 347 351 356 356 353 355 353 350 346 344 344 345 345 346 347
237 242 238 240 248 254 251 266 272 274 278 277 292 282 296 297 292 292 285 271 271 274 294 308 317 321 328 335 343 347 349 350 351 350 350 346 342 340 341 341 341 341 343 343
236 239 243 246 253 257 264 274 276 281 281 285 287 289 297 303 298 296 292 277 274 272 283 301 313 320 326 332 338 343 345 345 347 345 344 341 339 338 336 336 336 337 339 341
245 251 251 253 260 262 259 275 286 289 287 276 285 286 295 303 309 305 297 288 277 278 293 309 318 324 325 330 333 336 336 336 337 339 340 337 335 335 335 334 334 334 335 335
244 248 254 253 254 259 266 264 270 272 273 276 296 290 292 311 308 312 296 289 280 286 291 300 306 313 321 324 326 326 327 330 333 334 333 334 336 335 333 332 331 330 330 331
238 244 247 252 258 259 256 264 269 271 275 283 294 290 305 309 310 313 310 292 289 290 295 305 314 321 320 318 320 323 325 325 327 329 330 331 331 330 329 329 329 327 327 326
244 248 253 255 259 261 261 263 278 282 289 286 290 298 304 307 313 315 315 285 283 289 300 315 327 325 320 319 318 320 322 324 326 327 328 328 328 328 327 327 328 327 326 325
253 255 257 258 261 267 270 268 273 279 279 281 290 295 298 314 311 313 310 283 287 301 311 319 319 317 318 317 319 322 324 324 326 328 328 328 328 328 327 327 325 324 323 323
251 259 261 259 258 258 264 268 280 285 284 285 289 296 312 314 314 315 314 299 295 304 312 318 321 323 324 326 327 327 327 326 326 326 326 326 326 326 326 325 325 324 324 323
250 261 259 262 271 269 269 270 271 277 282 289 292 293 311 316 318 322 320 312 310 309 314 319 324 326 327 327 326 325 325 325 325 325 326 326 325 325 324 323 323 323 323 323
244 258 259 265 272 273 271 269 273 281 288 284 288 296 313 316 315 317 312 308 307 307 309 313 316 317 321 321 322 322 323 324 325 325 325 324 323 323 322 322 322 323 323 322
254 260 262 261 275 275 271 269 267 273 280 285 285 295 303 306 303 304 303 301 302 303 305 309 313 315 320 320 320 321 322 324 324 324 323 323 322 322 322 322 322 321 322 321
260 262 265 274 278 279 280 276 266 268 279 284 293 292 296 295 298 296 298 301 301 301 305 309 312 315 317 318 321 322 323 323 324 323 323 322 322 322 321 321 320 320 320 319
263 266 269 270 276 279 279 280 274 276 283 285 292 294 305 306 302 297 294 295 298 302 307 311 314 316 318 319 320 322 322 322 323 322 321 321 321 321 321 321 321 320 319 318
260 264 269 271 279 280 276 274 276 282 285 288 286 295 299 300 296 292 294 299 303 308 312 314 316 317 318 319 322 320 321 322 322 322 322 322 322 321 321 321 321 320 319 318
262 265 271 273 277 272 283 292 285 281 288 288 295 299 299 302 303 303 305 306 310 314 315 317 318 319 320 322 321 322 323 323 323 322 322 323 322 322 322 321 321 320 320 318
266 265 271 270 271 281 284 290 292 289 293 291 293 299 303 306 309 308 311 315 316 318 320 320 321 321 321 321 322 322 323 323 323 323 323 323 324 323 323 322 322 322 321 320
269 269 267 274 274 276 289 293 297 301 290 297 297 296 296 299 295 299 306 315 319 321 322 321 322 322 321 322 323 323 323 323 323 324 325 325 325 324 324 324 324 323 323 321
264 268 266 270 275 282 290 296 301 290 297 298 294 295 298 302 310 314 317 319 322 323 322 323 322 322 323 324 324 323 324 324 325 326 326 326 326 326 326 326 326 325 324 324
266 265 268 273 275 278 290 291 288 299 307 301 301 306 313 321 326 324 322 321 322 322 322 322 322 323 325 326 326 325 325 326 327 327 327 327 328 328 328 327 328 328 327 326
270 274 274 276 281 295 292 295 301 305 301 302 308 318 325 324 324 324 323 322 322 322 322 323 324 324 327 328 328 325 326 328 328 328 328 329 329 330 330 330 330 329 330 330
275 279 280 283 287 289 294 304 309 311 314 318 324 329 330 323 326 324 323 322 322 323 324 325 325 326 326 329 329 328 328 329 329 329 330 331 331 331 332 332 332 332 334 333
281 279 276 281 285 289 295 298 304 317 332 333 334 331 329 327 324 323 322 323 324 325 326 327 326 327 327 329 330 331 331 332 331 331 331 332 333 334 333 334 337 337 335 333
281 280 275 279 278 285 285 289 302 307 314 326 328 327 326 325 323 324 324 326 326 326 328 327 328 328 328 330 331 333 334 334 333 332 334 334 335 336 337 339 339 339 335 328